DW5861 Weather Reports


time (UTC)temp
C
wind
direction
speed
KPH
gust
KPH
rain 1hr
cm
rain 24hr
cm
rain mn
cm
humidity
%
barometer
mb
20260509203504 31 228 1.6 4.8 0.00 0.00 0.00 68 1008.0
20260509203004 31 348 1.6 4.8 0.00 0.00 0.00 69 1008.0
20260509202504 31 329 1.6 4.8 0.00 0.00 0.00 72 1008.1
20260509202025 31 184 3.2 4.8 0.00 0.00 0.00 67 1008.2
20260509201504 31 154 1.6 4.8 0.00 0.00 0.00 68 1008.2
20260509201004 30 24 1.6 4.8 0.00 0.00 0.00 75 1008.3
20260509200504 29 351 1.6 3.2 0.00 0.00 0.00 77 1008.3
20260509200025 30 316 1.6 4.8 0.00 0.00 0.00 72 1008.4
20260509195525 30 38 1.6 6.4 0.00 0.00 0.00 70 1008.5
20260509195004 30 40 1.6 6.4 0.00 0.00 0.00 73 1008.6
20260509194504 30 34 1.6 6.4 0.00 0.00 0.00 75 1008.7
20260509194004 30 204 3.2 9.7 0.00 0.00 0.00 73 1008.7
20260509193504 30 204 3.2 9.7 0.00 0.00 0.00 71 1008.7
20260509193004 30 18 1.6 6.4 0.00 0.00 0.00 73 1008.6
20260509192504 30 2 1.6 6.4 0.00 0.00 0.00 77 1008.7
20260509192004 30 216 1.6 4.8 0.00 0.00 0.00 73 1008.8
20260509191504 30 192 1.6 4.8 0.00 0.00 0.00 73 1008.8
20260509191004 30 214 1.6 4.8 0.00 0.00 0.00 75 1008.8
20260509190504 30 200 3.2 6.4 0.00 0.00 0.00 73 1008.9
20260509190004 28 188 1.6 6.4 0.00 0.00 0.00 77 1009.0
20260509185504 28 30 1.6 4.8 0.00 0.00 0.00 79 1009.0
20260509185025 28 5 1.6 4.8 0.00 0.00 0.00 77 1009.0
20260509184504 28 316 1.6 4.8 0.00 0.00 0.00 80 1009.1
20260509184004 28 291 1.6 4.8 0.00 0.00 0.00 79 1009.1
20260509183525 28 339 1.6 4.8 0.00 0.00 0.00 78 1009.2
20260509183004 28 13 1.6 4.8 0.00 0.00 0.00 78 1009.2
20260509182504 28 315 1.6 4.8 0.00 0.00 0.00 79 1009.2
20260509182004 28 204 3.2 6.4 0.00 0.00 0.00 78 1009.3
20260509181525 29 187 3.2 8.0 0.00 0.00 0.00 75 1009.4
20260509181004 30 165 4.8 8.0 0.00 0.00 0.00 75 1009.5
20260509180525 29 156 3.2 8.0 0.00 0.00 0.00 76 1009.4
20260509180004 28 177 3.2 8.0 0.00 0.00 0.00 77 1009.6
20260509175525 28 212 1.6 4.8 0.00 0.00 0.00 78 1009.7
20260509175004 27 349 1.6 4.8 0.00 0.00 0.00 82 1009.8
20260509174504 27 244 1.6 6.4 0.00 0.00 0.00 83 1010.0
20260509174004 27 213 1.6 6.4 0.00 0.00 0.00 83 1010.0
20260509173504 27 224 1.6 4.8 0.00 0.00 0.00 85 1010.0
20260509173004 26 259 1.6 4.8 0.00 0.00 0.00 87 1009.9
20260509172504 25 337 1.6 3.2 0.00 0.00 0.00 90 1010.1
20260509172004 25 22 0.0 3.2 0.00 0.00 0.00 90 1010.1
20260509171504 25 10 0.0 3.2 0.00 0.00 0.00 90 1010.1
20260509171004 25 342 0.0 3.2 0.00 0.00 0.00 90 1010.3
20260509170504 25 353 1.6 3.2 0.00 0.00 0.00 90 1010.3
20260509170025 26 359 1.6 3.2 0.00 0.00 0.00 89 1010.3
20260509165504 26 174 1.6 3.2 0.00 0.00 0.00 88 1010.4
20260509165004 26 173 1.6 3.2 0.00 0.00 0.00 88 1010.4
20260509164525 26 159 1.6 4.8 0.00 0.00 0.00 90 1010.6
20260509164004 25 186 1.6 4.8 0.00 0.00 0.00 90 1010.6
20260509163504 25 183 1.6 4.8 0.00 0.05 0.00 91 1010.7
20260509163004 25 182 1.6 4.8 0.00 0.46 0.00 93 1010.7
20260509162504 25 177 1.6 4.8 0.00 0.69 0.00 95 1010.6
20260509162004 25 181 1.6 6.4 0.00 0.71 0.00 95 1010.6
20260509161504 24 183 1.6 6.4 0.00 0.74 0.00 96 1010.7
20260509161025 24 162 3.2 4.8 0.00 0.74 0.00 97 1010.6
20260509160504 23 153 3.2 4.8 0.00 0.74 0.00 97 1010.6
20260509160004 23 155 1.6 4.8 0.00 0.74 0.00 97 1010.7
20260509155504 23 184 1.6 6.4 0.00 0.74 0.00 97 1010.5
20260509155004 23 180 3.2 6.4 0.00 0.76 0.00 97 1010.4
20260509154504 23 165 1.6 6.4 0.00 0.84 0.00 98 1010.3
20260509154025 23 156 1.6 3.2 0.00 0.94 0.00 97 1010.2
20260509153504 23 313 1.6 3.2 0.00 0.97 0.00 97 1010.4
20260509153004 23 214 1.6 6.4 0.00 0.99 0.00 97 1010.2
20260509152504 23 176 3.2 6.4 0.00 1.17 0.00 98 1009.9
20260509152025 23 161 3.2 6.4 0.00 1.17 0.00 98 1009.7
20260509151504 23 160 1.6 6.4 0.00 1.17 0.00 97 1009.8
20260509151025 22 112 1.6 3.2 0.00 1.19 0.00 97 1010.0
20260509150504 22 30 1.6 3.2 0.00 1.27 0.00 97 1010.1
20260509150004 22 359 0.0 3.2 0.00 1.35 0.00 97 1010.2
20260509145504 22 317 0.0 3.2 0.00 1.52 0.00 97 1010.1
20260509145004 22 317 0.0 3.2 0.00 1.57 0.00 97 1010.1
20260509144504 22 339 0.0 1.6 0.00 1.57 0.00 97 1010.1
20260509144004 22 20 0.0 1.6 0.00 1.57 0.00 97 1010.0
20260509143504 22 25 0.0 3.2 0.00 1.57 0.00 97 1009.9
20260509143004 22 13 1.6 3.2 0.00 1.57 0.00 97 1010.0
20260509142504 22 1 1.6 3.2 0.00 1.57 0.00 97 1010.1
20260509142004 22 328 0.0 3.2 0.00 1.57 0.00 97 1010.2
20260509141504 22 340 0.0 1.6 0.00 1.57 0.00 97 1010.3
20260509141004 22 314 0.0 1.6 0.00 1.57 0.00 97 1010.3
20260509140504 22 247 0.0 1.6 0.00 1.57 0.00 97 1010.4
20260509140005 22 330 0.0 3.2 0.00 1.57 0.00 97 1010.3
20260509135504 22 342 0.0 3.2 0.00 1.57 0.00 97 1010.3
20260509135004 22 22 0.0 1.6 0.00 1.57 0.00 97 1010.4
20260509134525 22 126 0.0 1.6 0.00 1.57 0.00 97 1010.4
20260509134004 22 106 0.0 1.6 0.00 1.57 0.00 97 1010.4
20260509133504 22 104 0.0 1.6 0.00 1.65 0.00 97 1010.5
20260509133004 22 98 0.0 3.2 0.00 1.83 0.00 97 1010.5
20260509132504 22 128 1.6 3.2 0.00 1.91 0.00 97 1010.3
20260509132004 22 167 0.0 3.2 0.00 1.96 0.00 97 1010.5
20260509131504 22 266 0.0 1.6 0.00 1.96 0.00 97 1010.5
20260509131004 22 341 0.0 3.2 0.00 1.96 0.00 97 1010.4
20260509130504 22 151 0.0 3.2 0.00 1.96 0.00 97 1010.3
20260509130004 22 163 1.6 3.2 0.00 1.96 0.00 97 1010.0
20260509125504 22 161 1.6 4.8 0.00 1.96 0.00 97 1010.0
20260509125004 22 160 1.6 4.8 0.00 1.96 0.00 97 1010.0
20260509124504 21 340 0.0 1.6 0.00 1.96 0.00 97 1010.1
20260509124004 21 79 0.0 3.2 0.00 1.96 0.00 97 1010.0
20260509123525 21 146 1.6 4.8 0.00 1.96 0.00 97 1009.7
20260509123004 21 148 1.6 4.8 0.00 1.96 0.00 97 1009.7
20260509122504 21 153 1.6 3.2 0.00 1.96 0.00 97 1009.8
20260509122004 21 164 1.6 3.2 0.00 1.96 0.00 97 1009.7
20260509121504 21 177 1.6 3.2 0.00 1.96 0.00 97 1009.8
20260509121004 21 180 0.0 1.6 0.00 1.96 0.00 97 1009.9
20260509120504 21 166 0.0 1.6 0.00 1.96 0.00 97 1009.9
20260509120004 21 158 0.0 3.2 0.00 1.96 0.00 97 1009.9
20260509115504 21 154 0.0 3.2 0.00 1.96 0.00 97 1009.9
20260509115004 21 356 0.0 1.6 0.00 1.96 0.00 97 1009.9
20260509114504 21 351 0.0 3.2 0.00 1.96 0.00 97 1009.8
20260509114004 21 357 0.0 3.2 0.00 1.96 0.00 97 1009.6
20260509113504 21 24 0.0 1.6 0.00 1.96 0.00 97 1009.7
20260509113004 21 204 0.0 1.6 0.00 1.96 0.00 97 1009.8
20260509112504 21 3 0.0 1.6 0.00 1.96 0.00 97 1009.7
20260509112004 21 10 0.0 1.6 0.00 1.96 0.00 97 1009.8
20260509111504 21 341 0.0 1.6 0.00 1.96 0.00 96 1009.9
20260509111004 21 352 0.0 3.2 0.00 1.96 0.00 96 1009.9
20260509110525 21 358 1.6 3.2 0.00 1.96 0.00 96 1009.7
20260509110025 21 353 1.6 3.2 0.00 1.96 0.00 96 1009.7
20260509105504 21 341 0.0 1.6 0.00 1.96 0.00 96 1009.6
20260509105004 21 353 0.0 3.2 0.00 1.96 0.00 96 1009.6
20260509104504 21 342 1.6 3.2 0.00 1.96 0.00 96 1009.4
20260509104004 21 343 1.6 3.2 0.00 1.96 0.00 96 1009.4
20260509103504 21 186 1.6 3.2 0.00 1.96 0.00 96 1009.2
20260509103004 21 169 1.6 4.8 0.00 1.96 0.00 96 1009.0
20260509102504 21 153 1.6 4.8 0.00 1.96 0.00 96 1008.9
20260509102004 21 141 1.6 4.8 0.00 1.96 0.00 96 1009.0
20260509101504 21 137 0.0 3.2 0.00 1.96 0.00 96 1009.1
20260509101025 21 151 1.6 3.2 0.00 1.96 0.00 96 1009.2
20260509100504 21 159 0.0 1.6 0.00 1.96 0.00 96 1009.3
20260509100005 21 154 0.0 1.6 0.00 1.96 0.00 96 1009.3
20260509095503 21 350 0.0 1.6 0.00 1.96 0.00 96 1009.3
20260509095004 21 60 0.0 1.6 0.00 1.96 0.00 96 1009.3
20260509094504 21 101 0.0 1.6 0.00 1.96 0.00 96 1009.2
20260509094025 21 144 0.0 1.6 0.00 1.96 0.00 96 1009.3
20260509093504 21 150 0.0 1.6 0.00 1.96 0.00 95 1009.3
20260509093004 21 256 0.0 1.6 0.00 1.96 0.00 95 1009.5
20260509092504 21 335 0.0 1.6 0.00 1.96 0.00 95 1009.5
20260509092004 21 333 0.0 1.6 0.00 1.96 0.00 95 1009.6
20260509091504 21 344 0.0 1.6 0.00 1.96 0.00 95 1009.6
20260509091004 21 26 0.0 1.6 0.00 1.96 0.00 95 1009.4
20260509090525 21 32 0.0 1.6 0.00 1.96 0.00 95 1009.4
20260509090004 21 293 0.0 1.6 0.00 1.96 0.00 95 1009.4
20260509085504 21 175 0.0 1.6 0.00 1.96 0.00 95 1009.5
20260509085004 21 183 0.0 1.6 0.00 1.96 0.00 95 1009.5
20260509084504 21 212 0.0 1.6 0.00 1.96 0.00 95 1009.4
20260509084003 21 216 0.0 1.6 0.00 1.96 0.00 95 1009.5
20260509083504 21 175 0.0 1.6 0.00 1.96 0.00 95 1009.4
20260509083004 21 154 0.0 1.6 0.00 1.96 0.00 95 1009.4
20260509082504 21 157 0.0 1.6 0.00 1.96 0.00 95 1009.4
20260509082004 21 159 0.0 1.6 0.00 1.96 0.00 94 1009.5
20260509081504 21 160 0.0 1.6 0.00 1.96 0.00 94 1009.6
20260509081025 21 31 0.0 1.6 0.00 1.96 0.00 94 1009.7
20260509080504 21 2 1.6 3.2 0.00 1.96 0.00 94 1009.8
20260509080004 21 348 1.6 3.2 0.00 1.96 0.00 94 1009.9
20260509075504 21 322 0.0 1.6 0.00 1.96 0.00 94 1010.0
20260509075003 21 141 0.0 1.6 0.00 1.96 0.00 94 1010.0
20260509074504 21 130 0.0 1.6 0.00 1.96 0.00 94 1010.1
20260509074004 21 124 0.0 1.6 0.00 1.96 0.00 94 1010.1
20260509073525 21 240 0.0 1.6 0.00 1.96 0.00 94 1010.1
20260509073004 21 240 0.0 1.6 0.00 1.96 0.00 94 1010.3
20260509072503 21 5 0.0 1.6 0.00 1.96 0.00 94 1010.3
20260509072003 21 357 0.0 1.6 0.00 1.96 0.00 94 1010.2
20260509071504 21 351 0.0 3.2 0.00 1.96 0.00 94 1010.3
20260509071004 21 342 0.0 3.2 0.00 1.96 0.00 94 1010.3
20260509070504 21 315 0.0 1.6 0.00 1.96 0.00 93 1010.3
20260509070003 21 302 0.0 1.6 0.00 1.96 0.00 93 1010.3
20260509065504 21 316 0.0 1.6 0.00 1.96 0.00 93 1010.3
20260509065003 21 356 0.0 1.6 0.00 1.96 0.00 93 1010.3
20260509064504 21 355 0.0 1.6 0.00 1.96 0.00 93 1010.2
20260509064004 21 154 0.0 3.2 0.00 1.96 0.00 93 1010.2
20260509063524 21 171 1.6 4.8 0.00 1.96 0.00 93 1010.1
20260509063003 21 157 1.6 6.4 0.00 1.96 0.00 93 1010.0
20260509062524 21 153 1.6 6.4 0.00 1.96 0.00 93 1009.8
20260509062024 21 158 1.6 6.4 0.00 1.96 0.00 93 1009.7
20260509061504 21 162 1.6 4.8 0.00 1.96 0.00 93 1009.8
20260509061004 21 168 1.6 3.2 0.00 1.96 0.00 93 1009.9
20260509060503 21 169 1.6 3.2 0.00 1.96 0.00 93 1010.0
20260509060004 21 161 1.6 3.2 0.00 1.96 0.00 93 1010.1
20260509055503 21 154 1.6 6.4 0.00 1.96 0.00 93 1010.1
20260509055004 21 152 1.6 6.4 0.00 1.96 0.00 93 1010.0
20260509054504 21 161 1.6 8.0 0.00 1.96 0.00 93 1010.0
20260509054003 21 173 1.6 8.0 0.00 1.96 0.00 93 1010.0
20260509053504 21 182 1.6 4.8 0.00 1.96 0.00 93 1010.0
20260509053004 21 172 1.6 4.8 0.00 1.96 0.00 93 1010.0
20260509052503 21 165 1.6 6.4 0.00 1.96 0.00 92 1010.0
20260509052004 21 168 1.6 6.4 0.00 1.96 0.00 92 1010.0
20260509051504 21 168 1.6 4.8 0.00 1.96 0.00 92 1010.0
20260509051003 21 160 1.6 4.8 0.00 1.96 0.00 92 1010.1
20260509050503 21 162 1.6 4.8 0.00 1.96 0.00 92 1010.1
20260509050003 21 170 1.6 4.8 0.00 1.96 0.00 92 1010.2
20260509045503 21 176 1.6 4.8 0.00 1.96 1.96 92 1010.2
20260509045003 21 176 1.6 6.4 0.00 1.96 1.96 92 1010.2
20260509044525 21 171 3.2 8.0 0.00 1.96 1.96 92 1010.3
20260509044003 21 181 3.2 8.0 0.00 1.96 1.96 92 1010.4
20260509043503 21 184 1.6 4.8 0.00 1.96 1.96 92 1010.3
20260509043004 21 172 1.6 6.4 0.00 1.96 1.96 92 1010.2
20260509042503 21 162 3.2 8.0 0.00 1.96 1.96 92 1010.2
20260509042004 21 157 1.6 8.0 0.00 1.96 1.96 92 1010.2
20260509041525 21 167 1.6 6.4 0.00 1.96 1.96 92 1010.3
20260509041003 21 169 1.6 8.0 0.00 1.96 1.96 92 1010.2
20260509040524 21 167 1.6 8.0 0.00 1.96 1.96 92 1010.1
20260509040004 21 166 1.6 4.8 0.00 1.96 1.96 92 1010.0
20260509035504 21 158 3.2 4.8 0.00 1.96 1.96 92 1009.9
20260509035024 21 161 1.6 4.8 0.00 1.96 1.96 92 1009.9
20260509034503 21 163 1.6 4.8 0.00 1.96 1.96 92 1009.8
20260509034004 21 160 1.6 8.0 0.00 1.96 1.96 92 1009.8
20260509033503 21 163 1.6 8.0 0.00 1.96 1.96 92 1009.8
20260509033003 21 160 3.2 8.0 0.00 1.96 1.96 92 1009.8
20260509032503 21 163 3.2 6.4 0.00 1.96 1.96 92 1009.7
20260509032003 21 164 3.2 6.4 0.00 1.96 1.96 92 1009.8
20260509031503 21 151 1.6 6.4 0.00 1.96 1.96 92 1009.7
20260509031003 21 142 1.6 6.4 0.00 1.96 1.96 91 1009.8
20260509030503 21 154 3.2 6.4 0.00 1.96 1.96 91 1009.8
20260509030025 21 174 3.2 6.4 0.00 1.96 1.96 91 1009.7
20260509025503 21 182 1.6 6.4 0.00 1.96 1.96 92 1009.7
20260509025003 21 159 1.6 9.7 0.00 1.96 1.96 92 1009.5
20260509024503 21 157 3.2 9.7 0.00 1.96 1.96 92 1009.4
20260509024003 21 161 3.2 9.7 0.00 1.96 1.96 92 1009.3
20260509023503 21 160 3.2 9.7 0.00 1.96 1.96 92 1009.1
20260509023024 21 160 3.2 8.0 0.00 1.96 1.96 92 1009.0
20260509022503 21 166 3.2 11.3 0.00 1.96 1.96 92 1009.1
20260509022003 21 165 3.2 11.3 0.00 1.96 1.96 91 1008.9
20260509021524 21 164 3.2 8.0 0.00 1.96 1.96 91 1008.7
20260509021024 21 170 3.2 6.4 0.00 1.96 1.96 91 1008.7
20260509020503 21 178 3.2 9.7 0.00 1.96 1.96 91 1008.8
20260509020003 21 178 3.2 9.7 0.00 1.96 1.96 91 1008.8
20260509015524 21 178 3.2 6.4 0.00 1.96 1.96 90 1008.8
20260509015004 21 179 3.2 6.4 0.00 1.96 1.96 90 1008.8
20260509014503 21 178 3.2 4.8 0.00 1.96 1.96 90 1008.7
20260509014003 21 168 1.6 4.8 0.00 1.96 1.96 90 1008.7
20260509013503 21 167 1.6 4.8 0.00 1.96 1.96 90 1008.8
20260509013003 22 176 3.2 8.0 0.00 1.96 1.96 90 1008.8
20260509012503 22 181 1.6 8.0 0.00 1.96 1.96 89 1008.9
20260509012003 22 176 1.6 3.2 0.00 1.96 1.96 89 1008.8
20260509011503 22 180 1.6 3.2 0.00 1.96 1.96 89 1008.9
20260509011024 22 186 1.6 3.2 0.00 1.96 1.96 88 1009.0
20260509010503 22 164 0.0 3.2 0.00 1.96 1.96 88 1009.1
20260509010004 22 79 0.0 3.2 0.00 1.96 1.96 88 1009.1
20260509005503 22 146 1.6 3.2 0.00 1.96 1.96 88 1009.0
20260509005003 22 120 1.6 3.2 0.00 1.96 1.96 87 1009.0
20260509004503 23 44 0.0 1.6 0.00 1.96 1.96 87 1008.9
20260509004003 23 115 0.0 3.2 0.00 1.96 1.96 87 1009.0
20260509003504 23 150 0.0 3.2 0.00 1.96 1.96 87 1009.1
20260509003024 23 150 0.0 3.2 0.00 1.96 1.96 87 1009.1
20260509002503 23 149 0.0 3.2 0.00 1.96 1.96 87 1009.2
20260509002024 23 11 1.6 4.8 0.00 1.96 1.96 87 1009.4
20260509001503 23 360 1.6 4.8 0.00 1.96 1.96 87 1009.4
20260509001004 23 3 1.6 4.8 0.00 1.96 1.96 86 1009.5
20260509000504 23 14 0.0 4.8 0.00 1.96 1.96 86 1009.6
20260509000003 23 3 1.6 3.2 0.00 1.96 1.96 86 1009.7
20260508235503 23 360 1.6 3.2 0.00 1.96 1.96 85 1009.7
20260508235003 23 12 1.6 4.8 0.00 1.96 1.96 84 1009.7
20260508234503 23 17 1.6 4.8 0.00 1.96 1.96 84 1009.8
20260508234003 23 33 1.6 3.2 0.00 1.96 1.96 84 1009.8
20260508233503 24 135 1.6 6.4 0.00 1.96 1.96 83 1009.7
20260508233003 24 163 3.2 6.4 0.00 1.96 1.96 81 1009.6
20260508232504 24 141 1.6 6.4 0.00 1.96 1.96 83 1009.4
20260508232003 24 32 1.6 4.8 0.00 1.96 1.96 85 1009.3
20260508231503 24 36 1.6 4.8 0.00 1.96 1.96 84 1009.4
20260508231003 24 85 1.6 4.8 0.00 1.96 1.96 82 1009.6
20260508230503 24 124 1.6 4.8 0.00 1.96 1.96 81 1009.6
20260508230024 24 156 1.6 4.8 0.00 1.96 1.96 81 1009.7
20260508225503 24 160 3.2 4.8 0.00 1.96 1.96 80 1009.6
20260508225003 25 155 3.2 9.7 0.00 1.96 1.96 81 1009.6
20260508224503 24 151 3.2 12.9 0.00 1.96 1.96 80 1009.7
20260508224003 24 143 3.2 12.9 0.00 1.96 1.96 81 1009.7
20260508223524 24 147 1.6 6.4 0.00 1.96 1.96 82 1009.7
20260508223003 24 138 1.6 4.8 0.00 1.96 1.96 82 1009.7
20260508222503 24 151 1.6 6.4 0.00 1.96 1.96 82 1009.7
20260508222003 24 152 1.6 8.0 0.00 1.96 1.96 81 1009.7
20260508221503 24 165 3.2 8.0 0.00 1.96 1.96 81 1009.6
20260508221003 24 175 3.2 9.7 0.00 1.96 1.96 80 1009.7
20260508220503 24 169 4.8 11.3 0.00 1.96 1.96 80 1009.7
20260508220003 24 169 4.8 11.3 0.00 1.96 1.96 80 1009.7
20260508215503 24 165 3.2 9.7 0.00 1.96 1.96 82 1009.7
20260508215024 23 157 1.6 4.8 0.00 1.96 1.96 82 1009.8
20260508214503 23 145 1.6 4.8 0.00 1.96 1.96 83 1009.9
20260508214003 23 151 1.6 8.0 0.00 1.96 1.96 83 1009.9
20260508213503 23 159 1.6 8.0 0.00 1.96 1.96 84 1010.0
20260508213003 23 153 1.6 4.8 0.00 1.96 1.96 85 1010.1
20260508212503 23 34 1.6 3.2 0.00 1.96 1.96 84 1010.0
20260508212024 23 83 1.6 4.8 0.00 1.96 1.96 83 1010.1
20260508211503 23 111 1.6 4.8 0.00 1.96 1.96 84 1010.1
20260508211024 23 22 1.6 4.8 0.00 1.96 1.96 84 1010.2
20260508210503 23 68 1.6 4.8 0.00 1.96 1.96 84 1010.1
20260508210003 23 86 1.6 8.0 0.00 1.96 1.96 83 1010.2
20260508205503 23 24 1.6 8.0 0.00 1.96 1.96 83 1010.3
20260508205003 23 8 1.6 6.4 0.00 1.96 1.96 84 1010.4
20260508204503 23 22 3.2 6.4 0.00 1.96 1.96 83 1010.5
20260508204003 23 64 1.6 6.4 0.00 1.96 1.96 84 1010.7